sat.trackr.live / text

‹ back to catalog

KUIPER-00214

NORAD 67778 · 2026-030Q

PAYLOAD ACTIVE UNKNOWN

§ Identity

Operator
Country
US
Launch date
2026-02-12
Launch site
FRGUI
Launch vehicle
Mass (kg)
RCS (m²)

External: N2YO · Heavens-Above · Gunter

§ Orbital elements

Epoch: 2026-09-20T14:06:02.509056Z

Period
97.30 min
Inclination
51.9017°
Eccentricity
0.0000668
Mean motion
14.79929221 rev/d
Perigee alt
629.1 km
Apogee alt
630.0 km
Semi-major
7,007.7 km
B*
-9.2124e-5
RAAN
61.3549°
Arg perigee
114.5696°
Mean anomaly
245.5336°
Rev number
3,417

§ Raw data

KUIPER-002141 67778U 26030Q   26263.58752904 -.00000923  00000+0 -92124-4 0  99922 67778  51.9017  61.3549 0000668 114.5696 245.5336 14.79929221 34179

JSON: /api/v1/satellites/67778 · /tle

For live sub-satellite position, see the globe view (requires WebGL).

§ Visibility from observer

Set your observer location to see the next 7 days of passes ≥ 10°. The values pass through the URL so the page stays shareable.

No JS? Fill the form by hand. The geolocation button needs JavaScript.